Sepang (Malaysia), Season 16
Lap Lap time Pos Tyres Weather Temp (°) Hum (%) Events
0 - 28 Medium Partially Cloudy 20 32 -
1 2:00.929 25 Medium Partially Cloudy 20 32 -
2 1:45.689 23 Medium Partially Cloudy 20 32 -
3 1:45.840 22 Medium Partially Cloudy 20 32 -
4 1:45.339 22 Medium Partially Cloudy 20 32 -
5 1:44.768 22 Medium Partially Cloudy 20 32 -
6 1:45.332 21 Medium Partially Cloudy 20 32 -
7 1:45.005 21 Medium Partially Cloudy 20 32 -
8 1:45.258 21 Medium Partially Cloudy 20 32 -
9 1:44.779 20 Medium Partially Cloudy 20 32 -
10 1:45.456 20 Medium Partially Cloudy 20 32 -
11 1:44.822 20 Medium Partially Cloudy 20 32 -
12 1:44.670 20 Medium Partially Cloudy 20 32 -
13 1:43.988 20 Medium Partially Cloudy 21 32 -
14 1:44.507 20 Medium Partially Cloudy 21 32 -
15 1:44.331 19 Medium Partially Cloudy 21 32 -
16 1:44.974 19 Medium Partially Cloudy 21 32 -
17 1:44.077 19 Medium Partially Cloudy 21 32 -
18 1:44.962 18 Medium Partially Cloudy 21 31 -
19 1:44.185 16 Medium Partially Cloudy 21 30 -
20 1:43.787 15 Medium Partially Cloudy 21 30 -
21 1:43.758 13 Medium Partially Cloudy 20 30 -
22 1:43.773 12 Medium Partially Cloudy 20 30 -
23 1:43.363 12 Medium Partially Cloudy 19 30 -
24 1:44.030 12 Medium (worn) Partially Cloudy 18 30 -
25 1:44.310 14 Medium (worn) Partially Cloudy 18 30 -
26 1:44.362 14 Medium (worn) Partially Cloudy 18 30 -
27 1:57.323 18 Medium (worn) Partially Cloudy 18 30 Pit
28 2:29.611 26 Medium Sunny 18 30 -
29 1:47.835 26 Medium Sunny 18 30 Car problem
30 1:48.338 24 Medium Sunny 18 30 Car problem
31 1:48.424 25 Medium Sunny 18 30 Car problem
32 1:48.242 24 Medium Sunny 18 30 Car problem
33 1:48.224 24 Medium Sunny 18 30 Car problem
34 1:48.589 24 Medium Sunny 18 30 Car problem
35 1:49.132 25 Medium Sunny 18 30 Car problem
36 1:49.800 24 Medium Sunny 18 30 Car problem
37 1:49.177 24 Medium Sunny 17 30 Car problem
38 1:49.744 24 Medium Sunny 17 30 Car problem
39 1:50.663 23 Medium Sunny 16 30 Car problem
40 1:50.382 24 Medium Sunny 16 30 Car problem
41 1:50.322 24 Medium Sunny 16 30 Car problem
42 1:51.030 24 Medium Sunny 16 30 Car problem
43 1:50.373 25 Medium Sunny 16 30 Car problem
44 1:50.860 25 Medium Sunny 16 30 Car problem
45 1:50.930 25 Medium Sunny 16 30 Car problem
46 1:51.529 25 Medium Sunny 16 30 Car problem
47 1:51.415 25 Medium Sunny 16 30 Car problem
48 1:51.717 25 Medium Sunny 16 30 Car problem
49 1:52.090 26 Medium Sunny 16 30 Car problem
50 1:52.661 25 Medium Sunny 16 30 Car problem
51 1:52.317 25 Medium Sunny 16 30 Car problem
52 1:53.474 24 Medium (worn) Sunny 16 30 Car problem
53 1:54.339 24 Medium (worn) Sunny 16 30 Car problem
54 - 24 Medium (worn) Sunny 16 29 Dropped out
55 - 24 Medium (worn) Sunny 16 29 Dropped out
Risks used:
Overtaking Blocking Clear track
15 15 40
Setup used:
Front Wing Rear Wing Engine Brakes Gear Suspension
600 600 800 650 650 650
Cha Eng FWing RWing Underb Sidep Cool Gear Bra Susp Elec
Car parts level: 5 7 3 3 5 5 5 5 7 3 5
Car parts wear (at the start, in %): 83 16 80 78 49 87 88 76 67 80 63
Car parts wear (at the finish, in %): 99 47 99 98 72 99 99 99 96 99 77
Start fuel (liters): 110
Pit Pitstop reason Tyres cond. (%) Fuel left (%) Refilled to (lit) Pittime (sec)
Stop 1 (Lap 27): No more fuel was left 6 2 120 31.713
Technical problems
Lap 29 The cooling of the car stopped functioning